Weather History for KMFI - October, 2010

Change the Weather History Date:

Saturday, October 16, 2010

  Actual Average Record
Temperature  
Mean Temperature 50 °F -  
Max Temperature 64 °F 56 °F 84 °F (1953)
Min Temperature 37 °F 35 °F 14 °F (1952)
Degree Days  
Heating Degree Days 14    
Moisture  
Dew Point 37 °F    
Average Humidity 65    
Maximum Humidity 93    
Minimum Humidity 42    
Precipitation  
Precipitation 0.00 in - - ()
Sea Level Pressure  
Sea Level Pressure 30.01 in    
Wind  
Wind Speed 7 mph (WSW)    
Max Wind Speed 15 mph    
Max Gust Speed 23 mph    
Visibility 10 miles    
Events      
Averages and records for this station are not official NWS values.
T = Trace of Precipitation, MM = Missing Value Source: NWS Daily Summary

Daily Weather History Graph

Daily Weather History Graph

Search for Another Location

Airport or City:

Trip Planner

Search our weather history database for the weather conditions in past years. The results will help you decide how hot, cold, wet, or windy it might be!

Date:

Astronomy

Oct. 16, 2010 Rise Set
Actual Time 7:17 AM CDT 6:14 PM CDT
Civil Twilight 6:47 AM CDT 6:43 PM CDT
Nautical Twilight 6:14 AM CDT 7:17 PM CDT
Astronomical Twilight 5:40 AM CDT 7:51 PM CDT
Moon 3:20 PM CDT (10/16) 12:55 AM CDT (10/16)
Length of Visible Light 11h 56m
Length of Day
10h 57m
Waxing Gibbous, 67% of the Moon is Illuminated
Oct 16
Waxing Gibbous
Oct 22
Full
Oct 30
Last Quarter
Nov 5
New
Nov 13
First Quarter

Hourly Weather History & Observations

Time (CDT) Temp. Windchill Dew Point Humidity Pressure Visibility Wind Dir Wind Speed Gust Speed Precip Events Conditions
12:54 AM 42.1 °F 40.2 °F 37.0 °F 82% 30.08 in 10.0 mi South 3.5 mph - N/A   Clear
1:54 AM 39.9 °F 36.7 °F 36.0 °F 86% 30.07 in 10.0 mi South 4.6 mph - N/A   Clear
2:54 AM 39.0 °F 34.8 °F 37.0 °F 93% 30.06 in 10.0 mi South 5.8 mph - N/A   Clear
3:54 AM 37.9 °F 33.5 °F 36.0 °F 93% 30.04 in 10.0 mi South 5.8 mph - N/A   Clear
4:54 AM 37.9 °F 33.5 °F 36.0 °F 93% 30.03 in 10.0 mi South 5.8 mph - N/A   Clear
5:54 AM 37.9 °F 33.5 °F 36.0 °F 93% 30.02 in 10.0 mi South 5.8 mph - N/A   Clear
6:54 AM 37.9 °F 32.7 °F 36.0 °F 93% 30.01 in 10.0 mi South 6.9 mph - N/A   Clear
7:54 AM 39.9 °F 34.5 °F 37.0 °F 89% 30.00 in 10.0 mi South 8.1 mph - N/A   Clear
8:54 AM 45.0 °F 40.1 °F 39.0 °F 80% 29.99 in 10.0 mi South 9.2 mph - N/A   Clear
9:54 AM 52.0 °F - 39.9 °F 63% 29.98 in 10.0 mi SSW 9.2 mph - N/A   Clear
10:54 AM 57.0 °F - 39.9 °F 53% 29.95 in 10.0 mi SW 15.0 mph - N/A   Clear
11:54 AM 59.0 °F - 39.9 °F 49% 29.94 in 10.0 mi West 12.7 mph - N/A   Clear
12:54 PM 61.0 °F - 41.0 °F 48% 29.93 in 10.0 mi West 11.5 mph - N/A   Clear
1:54 PM 63.0 °F - 43.0 °F 48% 29.93 in 10.0 mi West 11.5 mph 17.3 mph N/A   Clear
2:54 PM 64.0 °F - 43.0 °F 46% 29.93 in 10.0 mi WNW 8.1 mph 17.3 mph N/A   Clear
3:54 PM 63.0 °F - 42.1 °F 46% 29.94 in 10.0 mi WNW 15.0 mph - N/A   Clear
4:54 PM 62.1 °F - 39.9 °F 44% 29.96 in 10.0 mi NW 15.0 mph 23.0 mph N/A   Clear
5:54 PM 60.1 °F - 37.0 °F 42% 29.98 in 10.0 mi WNW 13.8 mph 19.6 mph N/A   Clear
6:54 PM 54.0 °F - 36.0 °F 51% 30.01 in 10.0 mi West 5.8 mph - N/A   Clear
7:54 PM 52.0 °F - 33.1 °F 49% 30.03 in 10.0 mi NW 9.2 mph - N/A   Clear
8:54 PM 48.0 °F - 32.0 °F 54% 30.04 in 10.0 mi NW 8.1 mph - N/A   Clear
9:54 PM 46.9 °F - 30.9 °F 54% 30.07 in 10.0 mi WNW 6.9 mph - N/A   Clear
10:54 PM 45.0 °F 40.6 °F 30.0 °F 56% 30.08 in 10.0 mi WNW 8.1 mph - N/A   Clear
11:54 PM 42.1 °F 38.4 °F 28.9 °F 60% 30.08 in 10.0 mi WNW 5.8 mph - N/A   Clear